Regional Weather Roundup
Issued by NWS

Home | Current Version | Previous Version | Text Only | Print | Product List | Glossary On
Versions: 1 2 3 4 5 6 7 8 9 10 11 12 13 14 15 16 17 18 19 20 21 22 23 24 25 26 27 28 29 30 31 32 33 34 35 36 37 38 39 40 41 42 43 44 45 46 47 48 49 50
000
ASUS45 KBOU 020410
RWRCO

WEATHER ROUNDUP FOR COLORADO
NATIONAL WEATHER SERVICE PUEBLO CO
1000 PM MDT SAT AUG 01 2015

NOTE: "FAIR" INDICATES FEW OR NO CLOUDS BELOW 12000 FEET WITH NO
SIGNIFICANT WEATHER AND/OR OBSTRUCTIONS TO VISIBILITY.

COZ001>005-013-030-031-020500-
...NORTHWEST COLORADO...

CITY           SKY/WX    TMP DP  RH WIND       PRES   REMARKS
CRAIG          CLOUDY    65  45  48 W5        30.16R
HAYDEN         CLOUDY    72  39  30 N6        30.19R
MEEKER         CLOUDY    67  45  45 NE5       30.19R
MOUNT WERNER   NOT AVBL
STEAMBOAT SPGS FAIR      65  44  47 SE6       30.21R
WALDEN         FAIR      63  32  31 NW5       30.30S
$$

COZ006>008-011-020500-
...WEST CENTRAL VALLEYS...

CITY           SKY/WX    TMP DP  RH WIND       PRES   REMARKS
GRAND JUNCTION CLOUDY    78  49  35 SE20      30.09R
MONTROSE       LGT RAIN  66  57  72 SE12      30.23R
EAGLE          CLOUDY    75  41  29 SW5       30.20S
RIFLE          CLOUDY    75  48  38 SE10      30.12R
DELTA          NOT AVBL
NUCLA          CLOUDY    63  55  77 CALM      30.29R
$$

COZ017>023-064>068-020500-
...SOUTHWEST COLORADO...

CITY           SKY/WX    TMP DP  RH WIND       PRES   REMARKS
DURANGO        MOCLDY    63  55  75 NE5       30.27R
CORTEZ         CLEAR     66  60  81 SE3       30.20R
PAGOSA SPRINGS MOCLDY    60  57  91 CALM      30.36R
TELLURIDE      CLOUDY    54  54 100 CALM      30.47R
WOLF CREEK PAS NOT AVBL
$$

COZ009-010-012-014-032>034-037-058>063-020500-
...CENTRAL COLORADO...

CITY           SKY/WX    TMP DP  RH WIND       PRES   REMARKS
ASPEN          CLOUDY    62  47  57 SW9       30.31R
BUENA VISTA    FAIR      62  46  55 SE6       30.36R
COPPER MTN     CLOUDY    59  34  38 W14       30.64S
BERTHOUD PASS  FAIR      48  37  66 E14       30.69R
COTTONWOOD PAS CLOUDY    61  41  48 E9        30.49R
GUNNISON       CLOUDY    59  52  77 CALM      30.40R
KREMMLING      MOCLDY    63  32  31 CALM      30.25R
LEADVILLE      CLOUDY    55  41  59 CALM      30.47R
MONARCH PASS   MOCLDY    46  37  71 W10       30.74S
SALIDA         NOT AVBL
NIWOT RIDGE    NOT AVBL
SUNLIGHT       CLOUDY    59  41  51 CALM      30.56S
WILKERSON PASS MOCLDY    50  39  66 SW5       30.62S
$$

COZ069>075-020500-
...SAN LUIS VALLEY/SANGRE DE CRISTO MOUNTAINS...

CITY           SKY/WX    TMP DP  RH WIND       PRES   REMARKS
ALAMOSA        CLOUDY    57  50  77 CALM      30.34R
LA VETA PASS   CLOUDY    46  41  81 MISG      30.52S
SAGUACHE       CLOUDY    59  48  67 N8        30.38R
$$

COZ035-036-038>040-020500-
...NORTHERN COLORADO FRONT RANGE...

CITY           SKY/WX    TMP DP  RH WIND       PRES   REMARKS
DENVER INTL AP PTCLDY    74  48  39 S23G31    30.09R
DMNS CITY PARK NOT AVBL
AURORA         PTCLDY    73  50  44 S22G32    30.12R
FRONT RANGE AP NOT AVBL
ERIE MUNI ARPT FAIR      77  47  35 S8        30.06R
BOULDER MUN AP FAIR      77  45  31 NW5       30.07R
CENTENNIAL     MOCLDY    72  49  44 S18G29    30.14R
BROOMFIELD     MOCLDY    75  48  38 S7        30.11R
LOVELAND       PTCLDY    75  48  38 E10       30.07R
LONGMONT       FAIR      77  49  37 NW6       30.07R
$$

COZ041-046-047-076>085-087-088-020500-
...PIKES PEAK/PALMER DIVIDE AND SOUTHERN FOOTHILLS...

CITY           SKY/WX    TMP DP  RH WIND       PRES   REMARKS
COLO. SPRINGS  MOCLDY    67  50  54 E8        30.23S
A. F. ACADEMY  MOCLDY    65  49  57 N2        30.24S
ELLICOTT       FAIR     N/A N/A N/A CALM      30.21F THUNDER
FALCON         FAIR      61  53  74 CALM      30.28S
FORT CARSON    MOCLDY    69  50  50 SW6       30.18S
LIMON          CLOUDY    65  51  60 N5        30.15R
MONUMENT HILL  NOT AVBL
TRINIDAD       CLOUDY    67  55  65 W9        30.20R
$$

COZ042>045-048>051-090-091-020500-
...NORTHEAST COLORADO...

CITY           SKY/WX    TMP DP  RH WIND       PRES   REMARKS
GREELEY ARPT   PTCLDY    73  54  49 E10       30.07R
AKRON          CLOUDY    69  56  62 E13G20    30.11R
BURLINGTON     CLOUDY    74  61  63 S8        30.09R
WRAY           FAIR      71  58  64 E8        30.08S
STERLING       FAIR      73  55  53 SE9       30.05F
HOLYOKE        NOT AVBL
FORT MORGAN    FAIR      76  54  46 SE14      30.09R
$$

COZ086-089-092>099-020500-
...SOUTHEAST COLORADO...

CITY           SKY/WX    TMP DP  RH WIND       PRES   REMARKS
PUEBLO         CLOUDY    71  63  75 NW7       30.11F
LA JUNTA       CLOUDY    72  59  63 SW10      30.08R
LAMAR          CLOUDY    81  66  60 SE10      30.03R
SPRINGFIELD      N/A     74  58  57 W5        30.11R
$$




USA.gov is the U.S. government's official web portal to all federal, state and local government web resources and services.